Flag for U.S.A. Weather past 2 weeks in Elizabeth, New Jersey, U.S.A.

Now
40 °F

Light rain. Fog.


Feels Like: 34 °F
Forecast: 21 / 38 °F
Wind: 9 mph from Southwest

Location: Newark International Airport

Current Time: Mar 4, 2015 at 9:50:50 PM

Latest Report: Mar 4, 2015 at 8:51 PM


Visibility: 2 mi

Pressure: 29.91 "Hg

Humidity: 97%

Dew point: 39 °F

Location of ElizabethLocation

Historic Weather in Elizabeth — Graph

°F

Elizabeth temperature yesterday

Maximum temperature yesterday: 34 °F (at 10:51 PM)
Minimum temperature yesterday: 22 °F (at 3:51 AM)
Average temperature yesterday: 28 °F

Past Weeks' High & Low Weather Summary

 TemperatureHumidityPressure
High43 °F (Mar 4, 5:49 PM)97% (Mar 4, 8:51 PM)30.83 "Hg (Mar 4, 8:51 PM)
Low1 °F (Feb 20, 5:51 AM)27% (Feb 28, 3:51 PM)29.73 "Hg (Feb 18, 11:51 PM)
Average24 °F59%30.18 "Hg
* Reported Feb 17 8:51 PM — Mar 4 8:51 PM, Elizabeth, Weather by CustomWeather, © 2015

Note: Actual official high and low records may vary slightly from our data, if they occured in-between our weather recording intervals... More about our weather records

Advertising

Elizabeth weather history for previous 24 hours

 ConditionsComfort  
Time TempWeatherWind HumidityBarometerVisibility
8:51 PM
Wed, Mar 4
40 °FLight rain. Fog.9 mph97%29.91 "Hg2 mi
7:51 PM41 °FFog.9 mph93%29.88 "Hg4 mi
6:51 PM41 °FFog.7 mph93%29.89 "Hg4 mi
5:51 PM42 °FFog.7 mph92%29.88 "Hg6 mi
5:49 PM43 °FFog.6 mph87%29.89 "Hg6 mi
4:51 PM41 °FCloudy.7 mph89%29.86 "Hg8 mi
3:51 PM42 °FMostly cloudy.10 mph85%29.88 "Hg8 mi
2:51 PM42 °FLight rain. Mostly cloudy.8 mph82%29.83 "Hg7 mi
1:51 PM42 °FLight rain. Fog.8 mph85%29.85 "Hg6 mi
12:51 PM41 °FLight rain. Fog.7 mph86%29.84 "Hg4 mi
11:51 AM39 °FFog.7 mph89%29.87 "Hg3 mi
10:51 AM38 °FLight rain. Fog.6 mph90%29.88 "Hg3 mi
9:51 AM37 °FLight rain. Fog.8 mph93%29.88 "Hg3 mi
8:51 AM36 °FLight rain. Fog.8 mph92%29.87 "Hg3 mi
7:51 AM36 °FLight rain. Fog.6 mph92%29.83 "Hg3 mi
6:51 AM35 °FFog.8 mph92%29.82 "Hg5 mi
5:51 AM35 °FLight rain. Fog.7 mph88%29.81 "Hg6 mi
4:51 AM36 °FMostly cloudy.6 mph89%29.79 "Hg8 mi
3:51 AM35 °FOvercast.7 mph92%29.75 "Hg8 mi
2:58 AM36 °FMostly cloudy.13 mph93%29.76 "Hg9 mi
1:51 AM35 °FMostly cloudy.10 mph92%29.79 "Hg9 mi
12:51 AM35 °FMostly cloudy.14 mph92%29.80 "Hg10 mi
11:51 PM
Tue, Mar 3
34 °FLight rain. Mostly cloudy.17 mph92%29.82 "Hg9 mi
10:51 PM34 °FLight rain. Fog.7 mph92%29.90 "Hg3 mi
10:03 PM34 °FLight rain. Fog.8 mph93%29.95 "Hg3 mi
9:51 PM33 °FLight rain. Fog.7 mph96%29.95 "Hg3 mi
Weather by CustomWeather, © 2015

See weather overviewHow to use our weather pages